TimeEST,TemperatureF,Dew PointF,Humidity,Sea Level PressureIn,VisibilityMPH,Wind Direction,Wind SpeedMPH,Gust SpeedMPH,PrecipitationIn,Events,Conditions,WindDirDegrees,DateUTC
12:54 AM,27.0,25.0,92,30.52,4.0,Calm,Calm,-,N/A,,Clear,0,2012-11-17 05:54:00
1:54 AM,27.0,24.1,89,30.54,4.0,Calm,Calm,-,N/A,,Clear,0,2012-11-17 06:54:00
2:22 AM,26.6,24.8,93,30.53,2.5,Calm,Calm,-,N/A,,Clear,0,2012-11-17 07:22:00
2:41 AM,26.6,24.8,93,30.54,3.0,ESE,3.5,-,N/A,,Clear,120,2012-11-17 07:41:00
2:54 AM,26.1,24.1,92,30.55,3.0,Calm,Calm,-,N/A,,Clear,0,2012-11-17 07:54:00
3:54 AM,28.0,26.1,92,30.57,5.0,ESE,3.5,-,N/A,,Overcast,110,2012-11-17 08:54:00
4:54 AM,30.9,28.9,92,30.58,4.0,NNE,4.6,-,N/A,,Overcast,30,2012-11-17 09:54:00
5:54 AM,32.0,30.9,96,30.60,4.0,Calm,Calm,-,N/A,,Overcast,0,2012-11-17 10:54:00
6:54 AM,32.0,30.0,92,30.61,4.0,Calm,Calm,-,N/A,,Overcast,0,2012-11-17 11:54:00
7:26 AM,32.0,30.2,93,30.61,2.5,Calm,Calm,-,N/A,,Overcast,0,2012-11-17 12:26:00
7:54 AM,32.0,30.9,96,30.64,2.5,SSE,3.5,-,N/A,,Overcast,160,2012-11-17 12:54:00
8:36 AM,33.8,30.2,87,30.63,3.0,Calm,Calm,-,N/A,,Overcast,0,2012-11-17 13:36:00
8:54 AM,34.0,32.0,92,30.65,3.0,Calm,Calm,-,N/A,,Overcast,0,2012-11-17 13:54:00
9:54 AM,36.0,33.1,89,30.66,4.0,South,4.6,-,N/A,,Overcast,170,2012-11-17 14:54:00
10:49 AM,39.2,35.6,87,30.65,5.0,South,4.6,-,N/A,,Overcast,170,2012-11-17 15:49:00
10:54 AM,39.9,35.1,83,30.67,6.0,South,5.8,-,N/A,,Haze,190,2012-11-17 15:54:00
11:54 AM,41.0,35.1,79,30.66,7.0,South,3.5,-,N/A,,Scattered Clouds,190,2012-11-17 16:54:00
12:54 PM,45.0,36.0,71,30.64,10.0,South,4.6,-,N/A,,Overcast,190,2012-11-17 17:54:00
1:50 PM,46.4,35.6,66,30.62,10.0,Calm,Calm,-,N/A,,Mostly Cloudy,0,2012-11-17 18:50:00
1:54 PM,46.9,35.1,63,30.63,10.0,Calm,Calm,-,N/A,,Mostly Cloudy,0,2012-11-17 18:54:00
2:54 PM,46.0,34.0,63,30.63,10.0,Calm,Calm,-,N/A,,Overcast,0,2012-11-17 19:54:00
3:54 PM,45.0,33.1,63,30.63,10.0,Calm,Calm,-,N/A,,Partly Cloudy,0,2012-11-17 20:54:00
4:54 PM,39.9,32.0,73,30.63,10.0,Calm,Calm,-,N/A,,Clear,0,2012-11-17 21:54:00
5:54 PM,37.0,33.1,86,30.65,9.0,Calm,Calm,-,N/A,,Clear,0,2012-11-17 22:54:00
6:54 PM,30.9,30.0,96,30.65,4.0,Calm,Calm,-,N/A,,Clear,0,2012-11-17 23:54:00
7:54 PM,30.9,30.0,96,30.65,4.0,Calm,Calm,-,N/A,,Clear,0,2012-11-18 00:54:00
8:17 PM,30.2,28.4,93,30.63,2.0,Calm,Calm,-,N/A,,Clear,0,2012-11-18 01:17:00
8:51 PM,30.2,26.6,86,30.64,1.0,Calm,Calm,-,N/A,,Clear,0,2012-11-18 01:51:00
8:54 PM,30.0,27.0,88,30.66,1.0,Calm,Calm,-,N/A,,Clear,0,2012-11-18 01:54:00
9:35 PM,28.4,28.4,100,30.64,0.8,Calm,Calm,-,N/A,,Clear,0,2012-11-18 02:35:00
9:44 PM,26.6,24.8,93,30.64,1.2,Calm,Calm,-,N/A,,Clear,0,2012-11-18 02:44:00
9:54 PM,28.9,28.0,96,30.66,1.8,Calm,Calm,-,N/A,,Clear,0,2012-11-18 02:54:00
10:02 PM,28.4,28.4,100,30.65,3.0,ESE,3.5,-,N/A,,Clear,120,2012-11-18 03:02:00
10:54 PM,30.0,28.9,96,30.67,3.0,ESE,3.5,-,N/A,,Clear,120,2012-11-18 03:54:00
11:04 PM,28.4,26.6,93,30.65,2.0,ESE,3.5,-,N/A,,Clear,120,2012-11-18 04:04:00
11:54 PM,30.0,28.0,92,30.67,1.8,Calm,Calm,-,N/A,,Clear,0,2012-11-18 04:54:00